This demonstration page uses our WeatherBlox Daily Observations layout. Learn more.

Left ArrowRight Arrow

39.95238, -75.16362

Hourly Observations for February 27, 2017

Temp ( °F °C ) Dew Point ( °F °C ) Humidity (%) Winds ( mph kmh ) Pressure ( in mb ) Visibility ( mi km ) Precip ( " mm )
12:54 am 00:54 Clear 33 0.6 19 -7.2 56 56 Calm 30.32 1027 10 16 0.00 0.00
1:54 am 01:54 Clear 33 0.6 21 -6.1 61 61 SSW 7 11 30.33 1027 10 16 0.00 0.00
2:54 am 02:54 Clear 31 -0.6 21 -6.1 67 67 SSW 6 9 30.35 1028 10 16 0.00 0.00
3:54 am 03:54 Clear 33 0.6 23 -5 66 66 Calm 30.36 1028 10 16 0.00 0.00
4:54 am 04:54 Partly Cloudy 33 0.6 24 -4.4 70 70 Calm 30.39 1029 10 16 0.00 0.00
5:54 am 05:54 Mostly Cloudy 34 1.1 25 -3.9 70 70 SSW 3 6 30.39 1029 10 16 0.00 0.00
6:54 am 06:54 Partly Cloudy 34 1.1 24 -4.4 67 67 S 6 9 30.40 1030 10 16 0.00 0.00
7:54 am 07:54 Mostly Cloudy 37 2.8 26 -3.3 65 65 SW 7 11 30.43 1030 10 16 0.00 0.00
8:54 am 08:54 Cloudy 41 5 28 -2.2 60 60 SSW 7 11 30.44 1031 10 16 0.00 0.00
9:54 am 09:54 Mostly Cloudy 47 8.3 27 -2.8 46 46 SW 10 17 30.45 1031 10 16 0.00 0.00
10:54 am 10:54 Mostly Cloudy 50 10 28 -2.2 43 43 SW 12 19 30.45 1031 10 16 0.00 0.00
11:54 am 11:54 Mostly Cloudy 51 10.6 29 -1.7 43 43 SSW 13 20 30.43 1031 10 16 0.00 0.00
12:54 pm 12:54 Mostly Cloudy 53 11.7 28 -2.2 38 38 SSW 13 20 30.40 1029 10 16 0.00 0.00
1:54 pm 13:54 Cloudy 54 12.2 27 -2.8 35 35 SW 14 22 30.38 1029 10 16 0.00 0.00
2:54 pm 14:54 Cloudy 54 12.2 29 -1.7 38 38 SW 9 15 30.38 1029 10 16 0.00 0.00
3:54 pm 15:54 Cloudy 54 12.2 29 -1.7 38 38 SW 9 15 30.39 1029 10 16 0.00 0.00
4:54 pm 16:54 Cloudy 53 11.7 24 -4.4 32 32 WSW 13 20 30.40 1030 10 16 0.00 0.00
5:54 pm 17:54 Cloudy 52 11.1 25 -3.9 35 35 WSW 10 17 30.41 1030 10 16 0.00 0.00
6:54 pm 18:54 Cloudy 51 10.6 28 -2.2 41 41 S 6 9 30.40 1030 10 16 0.00 0.00
7:54 pm 19:54 Mostly Cloudy 49 9.4 29 -1.7 46 46 SW 3 6 30.40 1030 10 16 0.00 0.00
8:54 pm 20:54 Mostly Cloudy 48 8.9 30 -1.1 50 50 Calm 30.40 1030 10 16 0.00 0.00
9:54 pm 21:54 Mostly Cloudy 48 8.9 31 -0.6 52 52 Calm 30.40 1030 10 16 0.00 0.00
10:54 pm 22:54 Cloudy 47 8.3 31 -0.6 54 54 SSE 5 7 30.40 1029 10 16 0.00 0.00
11:54 pm 23:54 Mostly Cloudy 47 8.3 32 0 56 56 SSE 5 7 30.38 1029 10 16 0.00 0.00

Powered by AerisWeather